Location: Winnipauk Village
(41.1295°N, 73.4171°W)
Time: 03:45:41
(UTC+00:00)

X-37B - Pass Details

Date: 06 August 2021
Orbit: 381 x 393 km, 45.0° (Epoch: 29 August)

Event Time Altitude Azimuth Distance (km) Brightness Sun altitude
Exits shadow 08:05:58 34° 302° (WNW) 649 1.5 -17.9°
Maximum altitude 08:06:52 46° 350° (N) 525 1.4 -17.8°
Drops below altitude 10° 08:09:54 10° 65° (ENE) 1,398 4.5 -17.4°
Sets 08:12:01 0° 72° (ENE) 2,252 5.7 -17.1°
